Time,TemperatureF,DewpointF,PressureIn,WindDirection,WindDirectionDegrees,WindSpeedMPH,WindSpeedGustMPH,Humidity,HourlyPrecipIn,Conditions,Clouds,dailyrainin,SoftwareType,DateUTC
2013-02-19 00:02:00,7.0,0.0,-100.00,NW,320,17.0,34.0,70,0.00,,,-99.99,,2013-02-19 06:02:00,
2013-02-19 00:11:00,7.0,-1.0,-100.00,NW,325,16.0,28.0,70,0.00,,,-99.99,,2013-02-19 06:11:00,
2013-02-19 00:21:00,7.0,0.0,-100.00,NW,315,13.0,24.0,71,0.00,,,-99.99,,2013-02-19 06:21:00,
2013-02-19 00:32:00,7.0,1.0,-100.00,NW,310,14.0,26.0,74,0.00,,,-99.99,,2013-02-19 06:32:00,
2013-02-19 00:42:00,7.0,1.0,-100.00,NW,310,14.0,26.0,74,0.00,,,-99.99,,2013-02-19 06:42:00,
2013-02-19 00:52:00,6.0,0.0,-100.00,NW,320,17.0,26.0,74,0.00,,,-99.99,,2013-02-19 06:52:00,
2013-02-19 01:01:00,6.0,0.0,-100.00,NW,320,17.0,26.0,74,0.00,,,-99.99,,2013-02-19 07:01:00,
2013-02-19 01:11:00,6.0,-1.0,-100.00,NW,315,15.0,27.0,73,0.00,,,-99.99,,2013-02-19 07:11:00,
2013-02-19 01:21:00,6.0,-1.0,-100.00,NNW,330,16.0,27.0,72,0.00,,,-99.99,,2013-02-19 07:21:00,
2013-02-19 01:32:00,6.0,-1.0,-100.00,NW,315,13.0,22.0,72,0.00,,,-99.99,,2013-02-19 07:32:00,
2013-02-19 01:42:00,6.0,-1.0,-100.00,NW,315,13.0,22.0,72,0.00,,,-99.99,,2013-02-19 07:42:00,
2013-02-19 01:52:00,5.0,-2.0,-100.00,NW,325,12.0,20.0,71,0.00,,,-99.99,,2013-02-19 07:52:00,
2013-02-19 02:02:00,5.0,-2.0,-100.00,NW,325,12.0,20.0,71,0.00,,,-99.99,,2013-02-19 08:02:00,
2013-02-19 02:11:00,6.0,-2.0,-100.00,NNW,330,14.0,19.0,71,0.00,,,-99.99,,2013-02-19 08:11:00,
2013-02-19 02:21:00,6.0,-1.0,-100.00,NW,320,11.0,19.0,72,0.00,,,-99.99,,2013-02-19 08:21:00,
2013-02-19 02:31:00,7.0,1.0,-100.00,NW,320,13.0,20.0,74,0.00,,,-99.99,,2013-02-19 08:31:00,
2013-02-19 02:42:00,7.0,1.0,-100.00,NW,320,13.0,20.0,74,0.00,,,-99.99,,2013-02-19 08:42:00,
2013-02-19 02:52:00,7.0,0.0,-100.00,NNW,330,14.0,24.0,75,0.00,,,-99.99,,2013-02-19 08:52:00,
2013-02-19 03:01:00,7.0,0.0,-100.00,NNW,330,14.0,24.0,75,0.00,,,-99.99,,2013-02-19 09:01:00,
2013-02-19 03:11:00,6.0,0.0,-100.00,NW,325,14.0,23.0,74,0.00,,,-99.99,,2013-02-19 09:11:00,
2013-02-19 03:21:00,6.0,-1.0,-100.00,NW,325,12.0,25.0,73,0.00,,,-99.99,,2013-02-19 09:21:00,
2013-02-19 03:32:00,5.0,-2.0,-100.00,NNW,335,15.0,24.0,72,0.00,,,-99.99,,2013-02-19 09:32:00,
2013-02-19 03:42:00,5.0,-2.0,-100.00,NNW,335,15.0,24.0,72,0.00,,,-99.99,,2013-02-19 09:42:00,
2013-02-19 03:52:00,6.0,-1.0,-100.00,NW,315,12.0,19.0,72,0.00,,,-99.99,,2013-02-19 09:52:00,
2013-02-19 04:01:00,6.0,-1.0,-100.00,NW,315,12.0,19.0,72,0.00,,,-99.99,,2013-02-19 10:01:00,
2013-02-19 04:11:00,6.0,0.0,-100.00,NW,320,9.0,16.0,73,0.00,,,-99.99,,2013-02-19 10:11:00,
2013-02-19 04:21:00,8.0,1.0,-100.00,NNW,330,16.0,26.0,72,0.00,,,-99.99,,2013-02-19 10:21:00,
2013-02-19 04:31:00,8.0,0.0,-100.00,NW,315,15.0,24.0,72,0.00,,,-99.99,,2013-02-19 10:31:00,
2013-02-19 04:41:00,8.0,0.0,-100.00,NW,315,15.0,24.0,72,0.00,,,-99.99,,2013-02-19 10:41:00,
2013-02-19 04:51:00,7.0,-1.0,-100.00,NW,305,21.0,30.0,70,0.00,,,-99.99,,2013-02-19 10:51:00,
2013-02-19 05:01:00,7.0,-1.0,-100.00,NW,305,21.0,30.0,70,0.00,,,-99.99,,2013-02-19 11:01:00,
2013-02-19 05:11:00,7.0,-1.0,-100.00,NW,315,20.0,32.0,70,0.00,,,-99.99,,2013-02-19 11:11:00,
2013-02-19 05:22:00,7.0,-1.0,-100.00,WNW,300,17.0,29.0,69,0.00,,,-99.99,,2013-02-19 11:22:00,
2013-02-19 05:32:00,6.0,-2.0,-100.00,NW,305,18.0,27.0,68,0.00,,,-99.99,,2013-02-19 11:32:00,
2013-02-19 05:42:00,6.0,-2.0,-100.00,NW,305,18.0,27.0,68,0.00,,,-99.99,,2013-02-19 11:42:00,
2013-02-19 05:52:00,6.0,-2.0,-100.00,NW,315,18.0,28.0,69,0.00,,,-99.99,,2013-02-19 11:52:00,
2013-02-19 06:01:00,6.0,-2.0,-100.00,NW,315,18.0,28.0,69,0.00,,,-99.99,,2013-02-19 12:01:00,
2013-02-19 06:12:00,6.0,-2.0,-100.00,NW,310,19.0,29.0,69,0.00,,,-99.99,,2013-02-19 12:12:00,
2013-02-19 06:22:00,6.0,-2.0,-100.00,NW,320,20.0,27.0,68,0.00,,,-99.99,,2013-02-19 12:22:00,
2013-02-19 06:32:00,6.0,-2.0,-100.00,NW,320,18.0,32.0,69,0.00,,,-99.99,,2013-02-19 12:32:00,
2013-02-19 06:42:00,6.0,-2.0,-100.00,NW,320,18.0,32.0,69,0.00,,,-99.99,,2013-02-19 12:42:00,
2013-02-19 06:52:00,6.0,-2.0,-100.00,NW,315,16.0,28.0,69,0.00,,,-99.99,,2013-02-19 12:52:00,
2013-02-19 07:02:00,6.0,-2.0,-100.00,NW,315,16.0,28.0,69,0.00,,,-99.99,,2013-02-19 13:02:00,
2013-02-19 07:11:00,5.0,-2.0,-100.00,NW,320,15.0,26.0,69,0.00,,,-99.99,,2013-02-19 13:11:00,
2013-02-19 07:22:00,5.0,-3.0,-100.00,NW,325,16.0,27.0,69,0.00,,,-99.99,,2013-02-19 13:22:00,
2013-02-19 07:32:00,4.0,-3.0,-100.00,NW,310,16.0,26.0,69,0.00,,,-99.99,,2013-02-19 13:32:00,
2013-02-19 07:41:00,4.0,-3.0,-100.00,NW,310,16.0,26.0,69,0.00,,,-99.99,,2013-02-19 13:41:00,
2013-02-19 07:52:00,4.0,-3.0,-100.00,NW,325,16.0,26.0,69,0.00,,,-99.99,,2013-02-19 13:52:00,
2013-02-19 08:01:00,4.0,-3.0,-100.00,NW,325,16.0,26.0,69,0.00,,,-99.99,,2013-02-19 14:01:00,
2013-02-19 08:11:00,5.0,-3.0,-100.00,NW,310,19.0,27.0,68,0.00,,,-99.99,,2013-02-19 14:11:00,
2013-02-19 08:21:00,6.0,-2.0,-100.00,NW,315,15.0,25.0,68,0.00,,,-99.99,,2013-02-19 14:21:00,
2013-02-19 08:32:00,4.0,-4.0,-100.00,NW,315,17.0,31.0,68,0.00,,,-99.99,,2013-02-19 14:32:00,
2013-02-19 08:42:00,4.0,-4.0,-100.00,NW,315,17.0,31.0,68,0.00,,,-99.99,,2013-02-19 14:42:00,
2013-02-19 08:52:00,4.0,-4.0,-100.00,NW,325,17.0,27.0,67,0.00,,,-99.99,,2013-02-19 14:52:00,
2013-02-19 09:01:00,4.0,-4.0,-100.00,NW,325,17.0,27.0,67,0.00,,,-99.99,,2013-02-19 15:01:00,
2013-02-19 09:11:00,4.0,-5.0,-100.00,NW,315,17.0,27.0,67,0.00,,,-99.99,,2013-02-19 15:11:00,
2013-02-19 09:21:00,4.0,-5.0,-100.00,NW,305,17.0,27.0,67,0.00,,,-99.99,,2013-02-19 15:21:00,
2013-02-19 09:32:00,3.0,-5.0,-100.00,NW,320,18.0,30.0,66,0.00,,,-99.99,,2013-02-19 15:32:00,
2013-02-19 09:42:00,3.0,-5.0,-100.00,NW,320,18.0,30.0,66,0.00,,,-99.99,,2013-02-19 15:42:00,
2013-02-19 09:52:00,4.0,-5.0,-100.00,NW,315,17.0,29.0,65,0.00,,,-99.99,,2013-02-19 15:52:00,
2013-02-19 10:02:00,4.0,-5.0,-100.00,NW,315,17.0,29.0,65,0.00,,,-99.99,,2013-02-19 16:02:00,
2013-02-19 10:11:00,4.0,-5.0,-100.00,NW,320,14.0,27.0,65,0.00,,,-99.99,,2013-02-19 16:11:00,
2013-02-19 10:21:00,3.0,-6.0,-100.00,NW,325,16.0,26.0,65,0.00,,,-99.99,,2013-02-19 16:21:00,
2013-02-19 10:32:00,4.0,-5.0,-100.00,NW,325,16.0,30.0,65,0.00,,,-99.99,,2013-02-19 16:32:00,
2013-02-19 10:41:00,4.0,-5.0,-100.00,NW,325,16.0,30.0,65,0.00,,,-99.99,,2013-02-19 16:41:00,
2013-02-19 10:51:00,5.0,-4.0,-100.00,WNW,300,19.0,28.0,65,0.00,,,-99.99,,2013-02-19 16:51:00,
2013-02-19 11:01:00,5.0,-4.0,-100.00,WNW,300,19.0,28.0,65,0.00,,,-99.99,,2013-02-19 17:01:00,
2013-02-19 11:11:00,4.0,-5.0,-100.00,NNW,330,17.0,26.0,65,0.00,,,-99.99,,2013-02-19 17:11:00,
2013-02-19 11:21:00,5.0,-4.0,-100.00,NW,315,18.0,26.0,65,0.00,,,-99.99,,2013-02-19 17:21:00,
2013-02-19 11:32:00,6.0,-3.0,-100.00,NNW,330,20.0,27.0,65,0.00,,,-99.99,,2013-02-19 17:32:00,
2013-02-19 11:41:00,6.0,-3.0,-100.00,NNW,330,20.0,27.0,65,0.00,,,-99.99,,2013-02-19 17:41:00,
2013-02-19 11:52:00,7.0,-2.0,-100.00,NW,310,18.0,26.0,65,0.00,,,-99.99,,2013-02-19 17:52:00,
2013-02-19 12:01:00,7.0,-2.0,-100.00,NW,310,18.0,26.0,65,0.00,,,-99.99,,2013-02-19 18:01:00,
2013-02-19 12:11:00,8.0,-1.0,-100.00,WNW,300,16.0,24.0,64,0.00,,,-99.99,,2013-02-19 18:11:00,
2013-02-19 12:21:00,8.0,-1.0,-100.00,NW,305,15.0,24.0,64,0.00,,,-99.99,,2013-02-19 18:21:00,
2013-02-19 12:31:00,8.0,-1.0,-100.00,WNW,300,20.0,26.0,63,0.00,,,-99.99,,2013-02-19 18:31:00,
2013-02-19 12:42:00,8.0,-2.0,-100.00,NW,305,17.0,26.0,63,0.00,,,-99.99,,2013-02-19 18:42:00,
2013-02-19 12:51:00,9.0,-1.0,-100.00,WNW,295,22.0,26.0,63,0.00,,,-99.99,,2013-02-19 18:51:00,
2013-02-19 13:01:00,9.0,-1.0,-100.00,NW,315,18.0,26.0,63,0.00,,,-99.99,,2013-02-19 19:01:00,
2013-02-19 13:11:00,9.0,-1.0,-100.00,NW,305,21.0,26.0,63,0.00,,,-99.99,,2013-02-19 19:11:00,
2013-02-19 13:21:00,9.0,-1.0,-100.00,WNW,295,19.0,26.0,63,0.00,,,-99.99,,2013-02-19 19:21:00,
2013-02-19 13:31:00,10.0,0.0,-100.00,WNW,300,19.0,24.0,62,0.00,,,-99.99,,2013-02-19 19:31:00,
2013-02-19 13:41:00,10.0,0.0,-100.00,WNW,300,19.0,24.0,62,0.00,,,-99.99,,2013-02-19 19:41:00,
2013-02-19 13:51:00,9.0,-1.0,-100.00,WNW,300,19.0,26.0,61,0.00,,,-99.99,,2013-02-19 19:51:00,
2013-02-19 14:01:00,9.0,-1.0,-100.00,WNW,300,19.0,26.0,61,0.00,,,-99.99,,2013-02-19 20:01:00,
2013-02-19 14:12:00,10.0,-1.0,-100.00,WNW,300,15.0,26.0,61,0.00,,,-99.99,,2013-02-19 20:12:00,
2013-02-19 14:21:00,10.0,0.0,-100.00,WNW,295,17.0,26.0,61,0.00,,,-99.99,,2013-02-19 20:21:00,
2013-02-19 14:32:00,10.0,0.0,-100.00,NW,315,18.0,28.0,61,0.00,,,-99.99,,2013-02-19 20:32:00,
2013-02-19 14:41:00,10.0,0.0,-100.00,NW,315,18.0,28.0,61,0.00,,,-99.99,,2013-02-19 20:41:00,
2013-02-19 14:52:00,11.0,0.0,-100.00,WNW,300,17.0,25.0,60,0.00,,,-99.99,,2013-02-19 20:52:00,
2013-02-19 15:02:00,11.0,0.0,-100.00,WNW,300,17.0,25.0,60,0.00,,,-99.99,,2013-02-19 21:02:00,
2013-02-19 15:11:00,11.0,0.0,-100.00,WNW,300,16.0,29.0,59,0.00,,,-99.99,,2013-02-19 21:11:00,
2013-02-19 15:21:00,11.0,0.0,-100.00,NW,310,19.0,26.0,59,0.00,,,-99.99,,2013-02-19 21:21:00,
2013-02-19 15:32:00,11.0,0.0,-100.00,NW,325,16.0,24.0,58,0.00,,,-99.99,,2013-02-19 21:32:00,
2013-02-19 15:42:00,11.0,0.0,-100.00,NW,325,16.0,24.0,58,0.00,,,-99.99,,2013-02-19 21:42:00,
2013-02-19 15:51:00,12.0,-1.0,-100.00,WNW,300,17.0,24.0,57,0.00,,,-99.99,,2013-02-19 21:51:00,
2013-02-19 16:02:00,12.0,-1.0,-100.00,WNW,300,17.0,24.0,57,0.00,,,-99.99,,2013-02-19 22:02:00,
2013-02-19 16:11:00,12.0,-1.0,-100.00,WNW,300,17.0,24.0,57,0.00,,,-99.99,,2013-02-19 22:11:00,
2013-02-19 16:21:00,12.0,-1.0,-100.00,WNW,300,17.0,24.0,57,0.00,,,-99.99,,2013-02-19 22:21:00,
2013-02-19 16:32:00,11.0,-1.0,-100.00,NW,315,20.0,24.0,57,0.00,,,-99.99,,2013-02-19 22:32:00,
2013-02-19 16:41:00,11.0,-1.0,-100.00,NW,315,20.0,24.0,57,0.00,,,-99.99,,2013-02-19 22:41:00,
2013-02-19 16:51:00,11.0,-1.0,-100.00,NW,325,12.0,24.0,57,0.00,,,-99.99,,2013-02-19 22:51:00,
2013-02-19 17:01:00,11.0,-1.0,-100.00,NW,325,12.0,24.0,57,0.00,,,-99.99,,2013-02-19 23:01:00,
2013-02-19 17:11:00,10.0,-2.0,-100.00,NW,320,15.0,22.0,57,0.00,,,-99.99,,2013-02-19 23:11:00,
2013-02-19 17:21:00,10.0,-2.0,-100.00,NW,315,16.0,24.0,57,0.00,,,-99.99,,2013-02-19 23:21:00,
2013-02-19 17:32:00,9.0,-2.0,-100.00,NW,305,17.0,22.0,57,0.00,,,-99.99,,2013-02-19 23:32:00,
2013-02-19 17:41:00,9.0,-2.0,-100.00,NW,305,17.0,22.0,57,0.00,,,-99.99,,2013-02-19 23:41:00,
2013-02-19 17:52:00,9.0,-2.0,-100.00,NNW,330,9.0,20.0,59,0.00,,,-99.99,,2013-02-19 23:52:00,
2013-02-19 18:01:00,9.0,-2.0,-100.00,NNW,330,9.0,20.0,59,0.00,,,-99.99,,2013-02-20 00:01:00,
2013-02-19 18:11:00,8.0,-3.0,-100.00,NW,310,11.0,19.0,59,0.00,,,-99.99,,2013-02-20 00:11:00,
2013-02-19 18:21:00,8.0,-3.0,-100.00,NW,320,9.0,18.0,60,0.00,,,-99.99,,2013-02-20 00:21:00,
2013-02-19 18:32:00,8.0,-3.0,-100.00,NW,325,9.0,15.0,61,0.00,,,-99.99,,2013-02-20 00:32:00,
2013-02-19 18:41:00,8.0,-3.0,-100.00,NW,325,9.0,15.0,61,0.00,,,-99.99,,2013-02-20 00:41:00,
2013-02-19 18:51:00,7.0,-3.0,-100.00,NNW,330,9.0,16.0,62,0.00,,,-99.99,,2013-02-20 00:51:00,
2013-02-19 19:02:00,7.0,-3.0,-100.00,NNW,330,9.0,16.0,62,0.00,,,-99.99,,2013-02-20 01:02:00,
2013-02-19 19:11:00,7.0,-3.0,-100.00,NNW,340,7.0,12.0,63,0.00,,,-99.99,,2013-02-20 01:11:00,
2013-02-19 19:21:00,7.0,-3.0,-100.00,NNW,345,9.0,15.0,63,0.00,,,-99.99,,2013-02-20 01:21:00,
2013-02-19 19:32:00,6.0,-4.0,-100.00,NW,325,9.0,16.0,63,0.00,,,-99.99,,2013-02-20 01:32:00,
2013-02-19 19:42:00,6.0,-4.0,-100.00,NW,325,9.0,16.0,63,0.00,,,-99.99,,2013-02-20 01:42:00,
2013-02-19 19:51:00,6.0,-4.0,-100.00,NNW,335,9.0,15.0,64,0.00,,,-99.99,,2013-02-20 01:51:00,
2013-02-19 20:01:00,6.0,-4.0,-100.00,NNW,335,9.0,15.0,64,0.00,,,-99.99,,2013-02-20 02:01:00,
2013-02-19 20:11:00,5.0,-4.0,-100.00,North,0,11.0,17.0,65,0.00,,,-99.99,,2013-02-20 02:11:00,
2013-02-19 20:21:00,4.0,-5.0,-100.00,NNW,345,9.0,17.0,65,0.00,,,-99.99,,2013-02-20 02:21:00,
2013-02-19 20:32:00,4.0,-5.0,-100.00,North,350,6.0,12.0,66,0.00,,,-99.99,,2013-02-20 02:32:00,
2013-02-19 20:42:00,4.0,-5.0,-100.00,North,350,6.0,12.0,66,0.00,,,-99.99,,2013-02-20 02:42:00,
2013-02-19 20:52:00,3.0,-5.0,-100.00,NNW,340,9.0,14.0,66,0.00,,,-99.99,,2013-02-20 02:52:00,
2013-02-19 21:01:00,3.0,-5.0,-100.00,NNW,340,9.0,14.0,66,0.00,,,-99.99,,2013-02-20 03:01:00,
2013-02-19 21:12:00,3.0,-6.0,-100.00,NNW,335,9.0,14.0,67,0.00,,,-99.99,,2013-02-20 03:12:00,
2013-02-19 21:22:00,2.0,-6.0,-100.00,NNW,330,8.0,17.0,67,0.00,,,-99.99,,2013-02-20 03:22:00,
2013-02-19 21:32:00,2.0,-7.0,-100.00,North,355,7.0,14.0,67,0.00,,,-99.99,,2013-02-20 03:32:00,
2013-02-19 21:41:00,2.0,-7.0,-100.00,North,355,7.0,14.0,67,0.00,,,-99.99,,2013-02-20 03:41:00,
2013-02-19 21:51:00,1.0,-7.0,-100.00,NNW,340,7.0,13.0,67,0.00,,,-99.99,,2013-02-20 03:51:00,
2013-02-19 22:01:00,1.0,-7.0,-100.00,NNW,340,7.0,13.0,67,0.00,,,-99.99,,2013-02-20 04:01:00,
2013-02-19 22:11:00,1.0,-7.0,-100.00,NNW,345,7.0,14.0,68,0.00,,,-99.99,,2013-02-20 04:11:00,
2013-02-19 22:21:00,0.0,-7.0,-100.00,NNW,340,6.0,11.0,68,0.00,,,-99.99,,2013-02-20 04:21:00,
2013-02-19 22:31:00,0.0,-8.0,-100.00,North,0,9.0,14.0,68,0.00,,,-99.99,,2013-02-20 04:31:00,
2013-02-19 22:41:00,0.0,-8.0,-100.00,North,0,9.0,14.0,68,0.00,,,-99.99,,2013-02-20 04:41:00,
2013-02-19 22:51:00,-1.0,-9.0,-100.00,North,355,6.0,14.0,68,0.00,,,-99.99,,2013-02-20 04:51:00,
2013-02-19 23:02:00,-1.0,-9.0,-100.00,North,355,6.0,14.0,68,0.00,,,-99.99,,2013-02-20 05:02:00,
2013-02-19 23:12:00,-1.0,-9.0,-100.00,North,350,7.0,13.0,68,0.00,,,-99.99,,2013-02-20 05:12:00,
2013-02-19 23:22:00,-1.0,-9.0,-100.00,NNW,335,5.0,13.0,69,0.00,,,-99.99,,2013-02-20 05:22:00,
2013-02-19 23:32:00,-1.0,-9.0,-100.00,NNW,345,6.0,11.0,70,0.00,,,-99.99,,2013-02-20 05:32:00,
2013-02-19 23:43:00,-1.0,-9.0,-100.00,NNW,345,6.0,11.0,70,0.00,,,-99.99,,2013-02-20 05:43:00,
2013-02-19 23:52:00,-2.0,-9.0,-100.00,North,355,6.0,10.0,70,0.00,,,-99.99,,2013-02-20 05:52:00,